Terminal Aerodrome Forecast
Issued by NWS Charleston, WV

Current Version | Previous Version | Graphics & Text | Print | Product List | Glossary On
Versions: 1 2 3 4 5 6 7 8 9 10 11 12 13 14 15 16 17 18 19 20 21 22 23 24 25 26 27 28 29 30 31 32 33 34
000
FTUS41 KRLX 270900 AAA
TAFCRW
TAF AMD
KCRW 270904Z 2709/2806 20005KT P6SM SCT040 BKN100
     FM271500 22008KT P6SM VCTS BKN050CB
     FM271800 24010G20KT 5SM TSRA BKN040CB
     FM272300 25010G20KT P6SM BKN050
     FM280300 28008KT P6SM BKN035=

USA.gov is the U.S. government's official web portal to all federal, state and local government web resources and services.